ヘリン-ローマン-アルー第1彗星

117P/Helin-Roman-Alu 1 (1997)

English version
Home page
Total 6,336 html files since Dec. 4, 1995
Updated on December 2, 2007

---------------------------------------------------------------------

・ プロフィール

・ 軌道要素

   The following improved orbital elements by Kenji Muraoka, are
  from 177 observations 1988 to 1999, perturbations by 9 Plantes,
  Moon and 5 minor planets were taken into account.
   The mean residual is +/- 0.74 arc seconds.

      Epoch  =  1997 Mar. 13.0  TT       JDT = 2450520.5
          T  =  1997 Mar. 26.87668       +/- 0.00096 (m.e.) TT
       Peri. =  215.07749                +/- 0.00013
       Node  =   73.47253                +/- 0.00010   (2000.0)
       Incl. =    9.74249                +/- 0.00002
          q  =    3.7148304              +/- 0.0000007 AU
          e  =    0.1756999              +/- 0.0000001
          a  =    4.5066477              +/- 0.0000003 AU
          n  =    0.10302050             +/- 0.00000001
          P  =    9.567                  +/- 0.0000008  years

・ 星図

・ 光度変化

        m1 = -0.5 + 5 logΔ + 25.0 log r(t - 300)

---------------------------------------------------------------------

軌道要素は村岡健治氏の計算によるものです。
星図は StellaNavigator Ver.2.0 for Windows (アストロアーツ 編著 / アスキー出版局刊) で作成したものです。
光度グラフはComet for Windowsで作成したものです。

---------------------------------------------------------------------

Copyright(C) 1995-2008 Seiichi Yoshida (comet@aerith.net). All rights reserved.